TimeAKDT,TemperatureF,Dew PointF,Humidity,Sea Level PressureIn,VisibilityMPH,Wind Direction,Wind SpeedMPH,Gust SpeedMPH,PrecipitationIn,Events,Conditions,WindDirDegrees,DateUTC
12:53 AM,37.9,36.0,93,29.76,10.0,NNW,4.6,-,N/A,,Partly Cloudy,340,2013-10-05 08:53:00
1:53 AM,39.0,36.0,89,29.77,10.0,NNW,6.9,-,N/A,,Partly Cloudy,340,2013-10-05 09:53:00
2:53 AM,37.9,36.0,93,29.77,10.0,NNW,6.9,-,N/A,,Clear,340,2013-10-05 10:53:00
3:53 AM,37.9,35.1,89,29.78,10.0,NNW,6.9,-,N/A,,Clear,340,2013-10-05 11:53:00
4:53 AM,37.9,35.1,89,29.78,10.0,NNW,8.1,-,N/A,,Scattered Clouds,330,2013-10-05 12:53:00
5:53 AM,36.0,33.1,89,29.79,10.0,Calm,Calm,-,N/A,,Clear,0,2013-10-05 13:53:00
6:53 AM,34.0,32.0,92,29.79,10.0,NNW,3.5,-,N/A,,Clear,340,2013-10-05 14:53:00
7:53 AM,33.1,30.9,92,29.79,10.0,North,4.6,-,N/A,,Scattered Clouds,350,2013-10-05 15:53:00
8:53 AM,34.0,32.0,92,29.79,10.0,NNW,3.5,-,N/A,,Overcast,340,2013-10-05 16:53:00
9:53 AM,39.0,36.0,89,29.80,10.0,Calm,Calm,-,N/A,,Overcast,0,2013-10-05 17:53:00
10:53 AM,43.0,39.0,86,29.80,10.0,Calm,Calm,-,N/A,,Overcast,0,2013-10-05 18:53:00
11:53 AM,46.0,39.9,79,29.80,10.0,Calm,Calm,-,N/A,,Overcast,0,2013-10-05 19:53:00
12:53 PM,46.9,41.0,80,29.80,10.0,South,3.5,-,N/A,,Overcast,180,2013-10-05 20:53:00
1:53 PM,48.0,41.0,77,29.79,10.0,Calm,Calm,-,N/A,,Mostly Cloudy,0,2013-10-05 21:53:00
2:53 PM,51.1,44.1,77,29.78,10.0,SSW,12.7,-,N/A,,Overcast,200,2013-10-05 22:53:00
3:53 PM,50.0,44.1,80,29.78,10.0,South,10.4,18.4,N/A,,Overcast,190,2013-10-05 23:53:00
4:53 PM,48.9,41.0,74,29.78,10.0,South,6.9,17.3,N/A,,Overcast,180,2013-10-06 00:53:00
5:53 PM,48.0,41.0,77,29.77,10.0,SSW,12.7,-,N/A,,Overcast,200,2013-10-06 01:53:00
6:17 PM,48.2,39.2,71,29.76,10.0,South,11.5,16.1,N/A,,Overcast,190,2013-10-06 02:17:00
6:34 PM,48.2,39.2,71,29.76,10.0,SSW,13.8,18.4,N/A,,Overcast,200,2013-10-06 02:34:00
6:48 PM,48.2,39.2,71,29.76,10.0,SSW,12.7,-,N/A,,Overcast,200,2013-10-06 02:48:00
6:53 PM,46.9,39.9,77,29.76,10.0,SSW,12.7,-,N/A,,Overcast,200,2013-10-06 02:53:00
7:53 PM,46.0,42.1,86,29.75,7.0,SSW,13.8,-,0.00,Rain,Light Rain,200,2013-10-06 03:53:00
8:49 PM,46.4,42.8,87,29.75,10.0,SSE,10.4,20.7,0.00,,Overcast,160,2013-10-06 04:49:00
8:53 PM,46.0,42.1,86,29.75,10.0,SSE,11.5,20.7,0.00,,Overcast,160,2013-10-06 04:53:00
9:14 PM,46.4,39.2,76,29.75,10.0,South,9.2,18.4,N/A,,Overcast,180,2013-10-06 05:14:00
9:48 PM,46.4,39.2,76,29.76,10.0,South,6.9,-,N/A,,Overcast,170,2013-10-06 05:48:00
9:53 PM,46.9,39.0,74,29.76,10.0,South,6.9,-,N/A,,Overcast,170,2013-10-06 05:53:00
10:14 PM,46.4,39.2,76,29.76,10.0,South,6.9,-,N/A,,Overcast,180,2013-10-06 06:14:00
10:53 PM,46.9,39.9,77,29.76,10.0,South,10.4,-,N/A,,Overcast,190,2013-10-06 06:53:00
11:53 PM,46.9,39.9,77,29.76,10.0,South,9.2,-,N/A,,Overcast,190,2013-10-06 07:53:00